Satellite: CP6
Catalog number: 35004
Epoch time:      09350.96369657
Element set:    0171
Inclination:      040.4625 deg
RA of node:       224.1693 deg
Eccentricity:    0.0023539
Arg of perigee:   088.9949 deg
Mean anomaly:     271.3565 deg
Mean motion:   15.41935516 rev/day
Decay rate:      6.594e-05 rev/day^2
Epoch rev:           03254
Checksum:              327

Satellite: AEROCUB3
Catalog number: 35005
Epoch time:      09351.89850303
Element set:     167
Inclination:      040.4716 deg
RA of node:       219.1687 deg
Eccentricity:    0.0023736
Arg of perigee:   091.9698 deg
Mean anomaly:     268.3858 deg
Mean motion:   15.41783781 rev/day
Decay rate:      9.535e-05 rev/day^2
Epoch rev:            3268
Checksum:              337

Satellite: DRAGNSAT
Catalog number: 35690
Epoch time:      09351.49155758
Element set:     142
Inclination:      051.6360 deg
RA of node:       074.5036 deg
Eccentricity:    0.0003617
Arg of perigee:   289.3331 deg
Mean anomaly:     070.7290 deg
Mean motion:   15.90167210 rev/day
Decay rate:     5.5936e-04 rev/day^2
Epoch rev:            2219
Checksum:              290

Satellite: POLLUX
Catalog number: 35693
Epoch time:      09351.50290216
Element set:     150
Inclination:      051.6372 deg
RA of node:       075.3579 deg
Eccentricity:    0.0001778
Arg of perigee:   220.4976 deg
Mean anomaly:     139.6425 deg
Mean motion:   15.88667074 rev/day
Decay rate:     5.0050e-04 rev/day^2
Epoch rev:            2215
Checksum:              297

Satellite: CASTOR
Catalog number: 35694
Epoch time:      09351.53433688
Element set:     132
Inclination:      051.6394 deg
RA of node:       077.1260 deg
Eccentricity:    0.0003322
Arg of perigee:   196.6808 deg
Mean anomaly:     163.4617 deg
Mean motion:   15.84189146 rev/day
Decay rate:     2.1553e-04 rev/day^2
Epoch rev:            2213
Checksum:              296

Satellite: METEOR-M
Catalog number: 35865
Epoch time:      09350.66044659
Element set:      79
Inclination:      098.7871 deg
RA of node:       040.5251 deg
Eccentricity:    0.0002599
Arg of perigee:   154.8513 deg
Mean anomaly:     205.2734 deg
Mean motion:   14.21828345 rev/day
Decay rate:       1.76e-06 rev/day^2
Epoch rev:            1278
Checksum:              312

/EX



_______________________________________________
Via the Keps mailing list courtesy of AMSAT-NA
http://amsat.org/mailman/listinfo/keps

--- ViaMAIL!/WC v1.60d
 * Origin: Chowdanet (401-724-4410) telnet://chowdanet.com  (1:323/120)